Location: El Banqueo
(10.5289°N, 67.0444°W)
Time: 06:30:29
(UTC+00:00)

CZ-3C R/B - Pass Details

Date: 18 April 2024
Orbit: 291 x 31653 km, 20.1° (Epoch: 26 May)

Event Time Altitude Azimuth Distance (km) Brightness Sun altitude
Rises 23:32:06 0° 282° (WNW) 9,781 9.7 -13.5°
Reaches altitude 10° 23:44:01 10° 270° (W) 5,012 7.4 -16.3°
Maximum altitude 23:51:15 19° 228° (SW) 2,113 4.6 -18.0°
Drops below altitude 10° 23:54:14 10° 179° (S) 1,857 3.8 -18.7°
Enters shadow 23:54:21 - 177° (S) 1,876 3.8 -18.8°
